Home   Weather   Foochow   Past weeks

Flag for China Past Weather in Foochow, Fujian, China — Yesterday and Last 2 Weeks

Now
81 °F

Partly sunny.


Feels Like: 88 °F
Forecast: 75 / 87 °F
Wind: 3 mph from Northeast

Location: Fuzhou Airport

Current Time: Jun 28, 2017 at 6:37:08 pm

Latest Report: Jun 28, 2017 at 6:00 pm


Visibility: 4 mi

Pressure: 29.83 "Hg

Humidity: 94%

Dew Point: 79 °F

Location of FoochowLocation

Past Weather in Foochow — Graph

°F

Foochow Temperature Yesterday

Maximum temperature yesterday: 79 °F (at 11:00 am)
Minimum temperature yesterday: 73 °F (at 12:00 am)
Average temperature yesterday: 75 °F

High & Low Weather Summary for the Past Weeks

 TemperatureHumidityPressure
High88 °F (Jun 23, 1:00 pm)100% (Jun 13, 5:00 pm)29.89 "Hg (Jun 13, 5:00 pm)
Low68 °F (Jun 15, 2:00 am)70% (Jun 23, 4:00 pm)29.59 "Hg (Jun 24, 4:00 pm)
Average77 °F91%29.73 "Hg
* Reported Jun 13 5:00 pm — Jun 28 5:00 pm, Foochow. Weather by CustomWeather, © 2017

Note: Actual official high and low records may vary slightly from our data, if they occured in-between our weather recording intervals... More about our weather records

Advertising

Foochow Weather History for the Previous 24 Hours

Scroll right to see more
 ConditionsComfort  
Time TempWeatherWind HumidityBarometerVisibility
5:00 pm
Wed, Jun 28
81 °FScattered clouds.3 mph94%29.80 "Hg5 mi
4:00 pm81 °FBroken clouds.6 mph89%29.80 "Hg5 mi
3:00 pm86 °FScattered clouds.6 mph79%29.80 "Hg5 mi
2:00 pm82 °FScattered clouds.6 mph84%29.83 "Hg4 mi
1:00 pm82 °FBroken clouds.3 mph79%29.86 "Hg5 mi
12:00 pm82 °FBroken clouds.6 mph79%29.86 "HgN/A
11:00 am81 °FBroken clouds.3 mph84%29.86 "HgN/A
10:00 am81 °FPartly sunny.6 mph84%29.86 "HgN/A
9:00 am79 °FPartly sunny.3 mph84%29.86 "HgN/A
8:00 am79 °FPartly sunny.1 mph84%29.86 "HgN/A
7:00 am77 °FPassing clouds.No wind89%29.83 "Hg4 mi
6:00 am73 °FPartly sunny.1 mph100%29.83 "Hg4 mi
5:00 am73 °FFog.1 mph94%29.83 "Hg3 mi
4:00 am73 °FPassing clouds.1 mph94%29.83 "Hg4 mi
3:00 am73 °FPassing clouds.1 mph94%29.83 "HgN/A
2:00 am73 °FPassing clouds.1 mph94%29.83 "HgN/A
1:00 am73 °FMostly cloudy.1 mph94%29.86 "HgN/A
12:00 am73 °FOvercast.1 mph94%29.86 "HgN/A
11:00 pm
Tue, Jun 27
73 °FLow clouds.3 mph94%29.86 "HgN/A
10:00 pm73 °FPassing clouds.1 mph94%29.89 "HgN/A
9:00 pm73 °FPartly cloudy.3 mph94%29.89 "HgN/A
8:00 pm73 °FPassing clouds.3 mph94%29.89 "HgN/A
7:00 pm73 °FPassing clouds.3 mph94%29.86 "Hg6 mi
6:00 pm73 °FSprinkles. Scattered clouds.6 mph94%29.83 "Hg5 mi
Weather by CustomWeather, © 2017

See weather overviewHow to use our weather pages